FLTSATCOM 8 (USA 46)

Last updated on Thu Jul 03 2025 00:02:43 GMT+0000 (Coordinated Universal Time)

1 20253U 89077A 25183.63725823 -.00000367 00000+0 00000+0 0 9993 2 20253 12.5190 353.2566 0003690 87.2919 195.5687 1.00271745257053
UTC large
Height (km)
Speed (km/s)
/
Latitude / Longitude
Inclination (degrees)
Orbital Period (minutes)
Azimuth
Elevation
Range (km)
Doppler Factor

Next 0 passes for location: London (51.5072 / 0.1276)

Sorry there are no passes over London.